Spencer, IA

8:04 AM CST on November 20, 2017 (GMT -0600)
Spencer Municipal

Weather History for KSPW - May, 2014

Change the Weather History Date:

Wednesday, May 14, 2014

  Actual Average Record
Temperature  
Mean Temperature 47 °F -  
Max Temperature 64 °F 71 °F 102 °F (2013)
Min Temperature 30 °F 47 °F 30 °F (1997)
Degree Days  
Heating Degree Days 18    
Moisture  
Dew Point 31 °F    
Average Humidity 57    
Maximum Humidity 92    
Minimum Humidity 28    
Precipitation  
Precipitation 0.00 in - - ()
Sea Level Pressure  
Sea Level Pressure 30.22 in    
Wind  
Wind Speed 7 mph (NW)    
Max Wind Speed 23 mph    
Max Gust Speed 31 mph    
Visibility 10 miles    
Events      
Averages and records for this station are not official NWS values.
T = Trace of Precipitation, MM = Missing Value Source: NWS Daily Summary

Daily Weather History Graph

Daily Weather History Graph

Search for Another Location

Airport or City:

Trip Planner

Search our weather history database for the weather conditions in past years. The results will help you decide how hot, cold, wet, or windy it might be!

Date:

Astronomy

May. 14, 2014 Rise Set
Actual Time 5:58 AM CDT 8:36 PM CDT
Civil Twilight 5:25 AM CDT 9:09 PM CDT
Nautical Twilight 4:44 AM CDT 9:50 PM CDT
Astronomical Twilight 3:57 AM CDT 10:37 PM CDT
Moon 8:42 PM CDT (5/14) 5:58 AM CDT (5/14)
Length of Visible Light 15h 44m
Length of Day
14h 38m
Full, 100% of the Moon is Illuminated
May 14
Full
May 14
Full
May 21
Last Quarter
May 28
New
Jun 5
First Quarter

Hourly Weather History & Observations

Time (CDT) Temp. Windchill Dew Point Humidity Pressure Visibility Wind Dir Wind Speed Gust Speed Precip Events Conditions
12:53 AM 35.1 °F 31.0 °F 32.0 °F 89% 30.29 in 10.0 mi West 4.6 mph - N/A   Clear
1:53 AM 35.1 °F - 32.0 °F 89% 30.28 in 10.0 mi Calm Calm - N/A   Clear
2:53 AM 33.1 °F 28.7 °F 30.9 °F 92% 30.27 in 10.0 mi West 4.6 mph - N/A   Clear
3:53 AM 30.9 °F 27.5 °F 28.9 °F 92% 30.27 in 10.0 mi West 3.5 mph - N/A   Clear
4:53 AM 32.0 °F 27.5 °F 30.0 °F 92% 30.26 in 10.0 mi WNW 4.6 mph - N/A   Clear
5:53 AM 33.1 °F - 30.0 °F 89% 30.27 in 10.0 mi Calm Calm - N/A   Clear
7:53 AM 41.0 °F 39.0 °F 35.1 °F 79% 30.27 in 10.0 mi SSW 3.5 mph - N/A   Clear
8:53 AM 51.1 °F - 37.0 °F 59% 30.25 in 10.0 mi WSW 6.9 mph - N/A   Clear
10:53 AM 59.0 °F - 32.0 °F 36% 30.23 in 10.0 mi WNW 10.4 mph - N/A   Clear
11:53 AM 61.0 °F - 28.9 °F 30% 30.22 in 10.0 mi NW 6.9 mph - N/A   Clear
12:53 PM 63.0 °F - 30.9 °F 30% 30.20 in 10.0 mi NW 10.4 mph 17.3 mph N/A   Clear
1:53 PM 64.0 °F - 30.0 °F 28% 30.17 in 10.0 mi NW 12.7 mph 21.9 mph N/A   Scattered Clouds
2:53 PM 62.1 °F - 30.0 °F 30% 30.17 in 10.0 mi NW 8.1 mph 19.6 mph N/A   Overcast
4:53 PM 60.1 °F - 32.0 °F 35% 30.15 in 10.0 mi North 11.5 mph - 0.00 in   Overcast
5:53 PM 57.9 °F - 32.0 °F 37% 30.14 in 10.0 mi North 19.6 mph 24.2 mph N/A   Overcast
6:53 PM 55.9 °F - 32.0 °F 40% 30.15 in 10.0 mi North 23.0 mph 31.1 mph N/A   Mostly Cloudy
7:53 PM 52.0 °F - 28.9 °F 41% 30.19 in 10.0 mi North 17.3 mph 26.5 mph N/A   Mostly Cloudy
8:53 PM 48.9 °F - 27.0 °F 43% 30.20 in 10.0 mi North 16.1 mph 28.8 mph N/A   Mostly Cloudy
9:53 PM 46.9 °F - 27.0 °F 46% 30.22 in 10.0 mi North 18.4 mph 28.8 mph N/A   Overcast
10:53 PM 43.0 °F 35.7 °F 28.0 °F 56% 30.24 in 10.0 mi North 15.0 mph - N/A   Partly Cloudy
11:53 PM 41.0 °F 34.3 °F 28.0 °F 60% 30.23 in 10.0 mi North 11.5 mph - N/A   Clear